Terminal Aerodrome Forecast
Issued by NWS

Home | Current Version | Previous Version | Text Only | Print | Product List | Glossary On
Versions: 1 2 3 4 5 6 7 8 9 10 11 12 13 14 15 16 17 18 19 20 21 22 23 24 25 26 27 28
000
FTUS46 KMTR 272320
TAFSFO
TAF
KSFO 272320Z 2800/2906 27016KT P6SM FEW020
     FM280300 27012KT P6SM SCT018
     FM280600 26009KT P6SM BKN016
     FM280900 28006KT P6SM OVC014
     FM281600 28006KT P6SM SCT017
     FM281800 27015KT P6SM FEW010
     FM290400 27008KT P6SM FEW010=

USA.gov is the U.S. government's official web portal to all federal, state and local government web resources and services.